This is the latest recevied weather packets stored in our database for station/object K7TUS-6. If no packets are shown the sender has not sent any weather packets the latest 10 day(s).
| Time | Temp. | Humidity | Pressure | Rain* | Wind** | Luminosity | Snow |
|---|---|---|---|---|---|---|---|
| 1788142209 | 67° F | 19% | 743.7 mmHg | - | - | - | - |
| 1788141006 | 67° F | 20% | 743.5 mmHg | - | - | - | - |
| 1788140405 | 67° F | 20% | 742.8 mmHg | - | - | - | - |
| 1788139509 | 68° F | 16% | 743.5 mmHg | - | - | - | - |
| 1788139239 | 68° F | 16% | 743.2 mmHg | - | - | - | - |
| 1788137706 | 70° F | 16% | 744.1 mmHg | - | - | - | - |
| 1788137405 | 69° F | 19% | 744.4 mmHg | - | - | - | - |
| 1788135305 | 74° F | 14% | 744 mmHg | - | - | - | - |
| 1788134704 | 76° F | 15% | 744.4 mmHg | - | - | - | - |
| 1788133809 | 76° F | 15% | 744.1 mmHg | - | - | - | - |
| 1788131104 | 76° F | 10% | 743.6 mmHg | - | - | - | - |
| 1788130208 | 74° F | 17% | 744.8 mmHg | - | - | - | - |
| 1788129608 | 74° F | 15% | 744.7 mmHg | - | - | - | - |
| 1788129307 | 75° F | 13% | 744.1 mmHg | - | - | - | - |
| 1788128405 | 73° F | 18% | 743.7 mmHg | - | - | - | - |
| 1788127504 | 70° F | 20% | 744.7 mmHg | - | - | - | - |
| 1788126608 | 73° F | 17% | 744.1 mmHg | - | - | - | - |
| 1788125406 | 71° F | 21% | 744.8 mmHg | - | - | - | - |
| 1788124805 | 72° F | 19% | 745.1 mmHg | - | - | - | - |
| 1788124504 | 73° F | 16% | 744.7 mmHg | - | - | - | - |
| 1788123609 | 76° F | 16% | 745.6 mmHg | - | - | - | - |
| 1788122707 | 78° F | 9% | 745.8 mmHg | - | - | - | - |
| 1788121806 | 81° F | 7% | 745.4 mmHg | - | - | - | - |
| 1788121505 | 81° F | 6% | 745.9 mmHg | - | - | - | - |
| 1788120303 | 83° F | 9% | 745 mmHg | - | - | - | - |
* Rain since midnight (hover to see other rain measurements)
** Current wind speed in m/s (hover to see current wind gust speed)